User: anonymous   Login
Location: Unspecified
(0.0000°N, 0.0000°E)
Time: 10:52:52
(UTC+00:00)
Language:

ELEKTRO-L - Orbit

View from above orbital plane
View from above orbital plane
View from above satellite
View from above satellite

Ground track
Ground track

The orbit data is extracted from the following two-line orbital elements,

1 37344U 11001A   17205.53739444 -.00000310 +00000-0 +00000-0 0  9993
2 37344 002.5130 077.8690 0003587 283.4387 076.4152 01.00187338023886
Epoch (UTC): 24 July 2017 12:53:50
Eccentricity: 0.0003587
inclination: 2.5130°
perigee height: 35795 km
apogee height: 35825 km
right ascension of ascending node: 77.8690°
argument of perigee: 283.4387°
revolutions per day: 1.00187338
mean anomaly at epoch: 76.4152°
orbit number at epoch: 2388

The dashed part of the orbit path shows where the satellite is in the earth's shadow,  

DLR